| time (UTC) | temp F | wind direction | speed MPH | gust MPH | rain 1hr in | rain 24hr in | rain mn in | humidity % | barometer mb |
| 20260507125009 | 43 | 0 | 0.0 | 0.0 | 0.00 | 0.01 | 0.00 | 91 | 1013.0 |
| 20260507124528 | 43 | 0 | 0.0 | 0.0 | 0.00 | 0.01 | 0.00 | 92 | 1013.1 |
| 20260507124011 | 43 | 0 | 0.0 | 0.0 | 0.00 | 0.01 | 0.00 | 93 | 1013.0 |
| 20260507123510 | 42 | 0 | 0.0 | 0.0 | 0.00 | 0.01 | 0.00 | 92 | 1012.9 |
| 20260507123032 | 42 | 0 | 0.0 | 0.0 | 0.00 | 0.01 | 0.00 | 92 | 1012.8 |
| 20260507122510 | 43 | 0 | 0.0 | 0.0 | 0.00 | 0.01 | 0.00 | 92 | 1012.8 |
| 20260507122009 | 42 | 0 | 0.0 | 0.0 | 0.00 | 0.01 | 0.00 | 91 | 1012.6 |
| 20260507121537 | 43 | 0 | 0.0 | 1.0 | 0.00 | 0.01 | 0.00 | 88 | 1012.5 |
| 20260507121012 | 44 | 0 | 0.0 | 1.0 | 0.00 | 0.01 | 0.00 | 90 | 1012.4 |
| 20260507120509 | 44 | 307 | 0.0 | 1.0 | 0.00 | 0.01 | 0.00 | 90 | 1012.4 |
| 20260507120030 | 44 | 0 | 0.0 | 3.0 | 0.00 | 0.01 | 0.00 | 90 | 1012.4 |
| 20260507115510 | 44 | 0 | 0.0 | 3.0 | 0.00 | 0.01 | 0.00 | 88 | 1012.4 |
| 20260507115010 | 45 | 311 | 1.0 | 3.0 | 0.00 | 0.01 | 0.00 | 89 | 1012.3 |
| 20260507114530 | 45 | 272 | 1.0 | 2.0 | 0.00 | 0.01 | 0.00 | 89 | 1012.3 |
| 20260507114010 | 44 | 0 | 0.0 | 0.0 | 0.00 | 0.01 | 0.00 | 90 | 1012.3 |
| 20260507113509 | 44 | 0 | 0.0 | 0.0 | 0.00 | 0.01 | 0.00 | 92 | 1012.3 |
| 20260507113034 | 43 | 0 | 0.0 | 0.0 | 0.00 | 0.01 | 0.00 | 90 | 1012.3 |
| 20260507112511 | 44 | 0 | 0.0 | 0.0 | 0.00 | 0.01 | 0.00 | 88 | 1012.3 |
| 20260507112017 | 44 | 0 | 0.0 | 0.0 | 0.00 | 0.01 | 0.00 | 89 | 1012.2 |
| 20260507111530 | 45 | 0 | 0.0 | 0.0 | 0.00 | 0.01 | 0.00 | 86 | 1012.2 |
| 20260507111011 | 46 | 0 | 0.0 | 0.0 | 0.00 | 0.01 | 0.00 | 88 | 1012.2 |
| 20260507110516 | 46 | 0 | 0.0 | 0.0 | 0.00 | 0.01 | 0.00 | 88 | 1012.1 |
| 20260507110031 | 45 | 0 | 0.0 | 3.0 | 0.00 | 0.01 | 0.00 | 86 | 1011.9 |
| 20260507105513 | 46 | 0 | 0.0 | 5.0 | 0.00 | 0.01 | 0.00 | 86 | 1011.9 |
| 20260507105010 | 47 | 0 | 2.0 | 5.0 | 0.00 | 0.01 | 0.00 | 85 | 1011.8 |
| 20260507104528 | 47 | 338 | 2.0 | 4.0 | 0.00 | 0.01 | 0.00 | 85 | 1011.7 |
| 20260507104008 | 47 | 340 | 1.0 | 2.0 | 0.00 | 0.01 | 0.00 | 85 | 1011.7 |
| 20260507103511 | 47 | 294 | 1.0 | 5.0 | 0.00 | 0.01 | 0.00 | 86 | 1011.7 |
| 20260507103027 | 47 | 338 | 1.0 | 5.0 | 0.00 | 0.01 | 0.00 | 86 | 1011.8 |
| 20260507102512 | 46 | 285 | 1.0 | 4.0 | 0.00 | 0.01 | 0.00 | 88 | 1011.7 |
| 20260507102011 | 46 | 293 | 1.0 | 4.0 | 0.00 | 0.01 | 0.00 | 86 | 1011.7 |
| 20260507101534 | 46 | 285 | 0.0 | 4.0 | 0.00 | 0.01 | 0.00 | 87 | 1011.7 |
| 20260507101011 | 46 | 0 | 0.0 | 2.0 | 0.00 | 0.01 | 0.00 | 87 | 1011.7 |
| 20260507100511 | 46 | 286 | 1.0 | 2.0 | 0.00 | 0.01 | 0.00 | 87 | 1011.6 |
| 20260507100034 | 46 | 295 | 1.0 | 3.0 | 0.00 | 0.01 | 0.00 | 87 | 1011.5 |
| 20260507095511 | 46 | 0 | 2.0 | 3.0 | 0.00 | 0.01 | 0.00 | 87 | 1011.5 |
| 20260507095013 | 46 | 0 | 0.0 | 0.0 | 0.00 | 0.01 | 0.00 | 88 | 1011.4 |
| 20260507094530 | 46 | 0 | 0.0 | 3.0 | 0.00 | 0.01 | 0.00 | 88 | 1011.5 |
| 20260507094010 | 45 | 0 | 1.0 | 3.0 | 0.00 | 0.01 | 0.00 | 90 | 1011.4 |
| 20260507093511 | 44 | 0 | 0.0 | 0.0 | 0.00 | 0.01 | 0.00 | 91 | 1011.4 |
| 20260507093038 | 45 | 0 | 0.0 | 0.0 | 0.00 | 0.01 | 0.00 | 89 | 1011.3 |
| 20260507092510 | 45 | 0 | 0.0 | 0.0 | 0.00 | 0.01 | 0.00 | 87 | 1011.2 |
| 20260507092010 | 46 | 0 | 0.0 | 0.0 | 0.00 | 0.01 | 0.00 | 88 | 1011.1 |
| 20260507091528 | 46 | 0 | 0.0 | 2.0 | 0.00 | 0.01 | 0.00 | 88 | 1011.1 |
| 20260507091009 | 46 | 0 | 0.0 | 2.0 | 0.00 | 0.01 | 0.00 | 88 | 1011.0 |
| 20260507090511 | 47 | 0 | 0.0 | 2.0 | 0.00 | 0.01 | 0.00 | 87 | 1011.1 |
| 20260507090032 | 47 | 283 | 1.0 | 3.0 | 0.00 | 0.01 | 0.00 | 88 | 1011.0 |
| 20260507085510 | 47 | 297 | 1.0 | 3.0 | 0.00 | 0.01 | 0.00 | 89 | 1010.9 |
| 20260507085012 | 46 | 0 | 0.0 | 0.0 | 0.00 | 0.01 | 0.00 | 90 | 1010.9 |
| 20260507084528 | 46 | 0 | 0.0 | 0.0 | 0.00 | 0.01 | 0.00 | 90 | 1010.8 |
| 20260507084107 | 46 | 0 | 0.0 | 0.0 | 0.00 | 0.01 | 0.00 | 90 | 1010.8 |
| 20260507083511 | 46 | 0 | 0.0 | 5.0 | 0.00 | 0.01 | 0.00 | 90 | 1010.7 |
| 20260507083037 | 46 | 0 | 0.0 | 5.0 | 0.00 | 0.01 | 0.00 | 91 | 1010.7 |
| 20260507082509 | 47 | 89 | 1.0 | 5.0 | 0.00 | 0.01 | 0.00 | 87 | 1010.5 |
| 20260507082009 | 47 | 0 | 0.0 | 2.0 | 0.00 | 0.01 | 0.00 | 88 | 1010.6 |
| 20260507081531 | 47 | 0 | 0.0 | 2.0 | 0.00 | 0.01 | 0.00 | 87 | 1010.6 |
| 20260507081010 | 47 | 0 | 0.0 | 2.0 | 0.00 | 0.01 | 0.00 | 87 | 1010.7 |
| 20260507080511 | 48 | 0 | 0.0 | 2.0 | 0.00 | 0.01 | 0.00 | 87 | 1010.6 |
| 20260507080030 | 48 | 304 | 0.0 | 1.0 | 0.00 | 0.01 | 0.00 | 86 | 1010.7 |
| 20260507075509 | 49 | 0 | 0.0 | 0.0 | 0.00 | 0.01 | 0.00 | 87 | 1010.7 |
| 20260507075011 | 48 | 0 | 0.0 | 0.0 | 0.00 | 0.01 | 0.00 | 87 | 1010.6 |
| 20260507074529 | 48 | 0 | 0.0 | 3.0 | 0.00 | 0.01 | 0.00 | 89 | 1010.6 |
| 20260507074009 | 48 | 0 | 0.0 | 3.0 | 0.00 | 0.01 | 0.00 | 88 | 1010.5 |
| 20260507073512 | 49 | 295 | 2.0 | 3.0 | 0.00 | 0.01 | 0.00 | 88 | 1010.4 |
| 20260507073030 | 49 | 0 | 0.0 | 3.0 | 0.00 | 0.01 | 0.00 | 89 | 1010.5 |
| 20260507072509 | 49 | 0 | 0.0 | 3.0 | 0.00 | 0.01 | 0.00 | 88 | 1010.5 |
| 20260507072012 | 49 | 269 | 1.0 | 2.0 | 0.00 | 0.01 | 0.00 | 88 | 1010.4 |
| 20260507071535 | 50 | 0 | 0.0 | 2.0 | 0.00 | 0.01 | 0.00 | 88 | 1010.4 |
| 20260507071017 | 49 | 0 | 0.0 | 2.0 | 0.00 | 0.01 | 0.00 | 89 | 1010.4 |
| 20260507070510 | 50 | 290 | 1.0 | 2.0 | 0.00 | 0.01 | 0.00 | 89 | 1010.4 |
| 20260507070031 | 50 | 0 | 0.0 | 0.0 | 0.00 | 0.01 | 0.00 | 88 | 1010.3 |
| 20260507065512 | 51 | 0 | 0.0 | 0.0 | 0.00 | 0.01 | 0.01 | 88 | 1010.3 |
| 20260507065010 | 51 | 0 | 0.0 | 2.0 | 0.00 | 0.01 | 0.01 | 89 | 1010.4 |
| 20260507064529 | 51 | 0 | 0.0 | 2.0 | 0.00 | 0.01 | 0.01 | 89 | 1010.3 |
| 20260507064012 | 51 | 346 | 0.0 | 2.0 | 0.00 | 0.01 | 0.01 | 89 | 1010.4 |
| 20260507063512 | 51 | 0 | 0.0 | 0.0 | 0.00 | 0.01 | 0.01 | 90 | 1010.4 |
| 20260507063032 | 51 | 0 | 0.0 | 0.0 | 0.00 | 0.01 | 0.01 | 90 | 1010.3 |
| 20260507062510 | 51 | 0 | 0.0 | 0.0 | 0.00 | 0.01 | 0.01 | 90 | 1010.3 |
| 20260507062012 | 52 | 0 | 0.0 | 0.0 | 0.00 | 0.01 | 0.01 | 90 | 1010.2 |
| 20260507061528 | 52 | 0 | 0.0 | 0.0 | 0.00 | 0.01 | 0.01 | 90 | 1010.1 |
| 20260507061010 | 52 | 0 | 0.0 | 0.0 | 0.00 | 0.01 | 0.01 | 89 | 1010.2 |
| 20260507060510 | 53 | 0 | 0.0 | 2.0 | 0.00 | 0.01 | 0.01 | 89 | 1010.1 |
| 20260507060030 | 53 | 0 | 0.0 | 2.0 | 0.00 | 0.01 | 0.01 | 89 | 1010.1 |
| 20260507055509 | 53 | 349 | 1.0 | 2.0 | 0.00 | 0.01 | 0.01 | 90 | 1010.0 |
| 20260507055009 | 52 | 345 | 0.0 | 2.0 | 0.00 | 0.01 | 0.01 | 90 | 1010.0 |
| 20260507054528 | 53 | 0 | 0.0 | 3.0 | 0.00 | 0.01 | 0.01 | 89 | 1009.8 |
| 20260507054012 | 53 | 0 | 0.0 | 3.0 | 0.00 | 0.01 | 0.01 | 89 | 1009.7 |
| 20260507053510 | 53 | 195 | 1.0 | 3.0 | 0.00 | 0.01 | 0.01 | 90 | 1009.5 |
| 20260507053028 | 53 | 0 | 0.0 | 5.0 | 0.00 | 0.01 | 0.01 | 90 | 1009.6 |
| 20260507052511 | 53 | 247 | 3.0 | 5.0 | 0.00 | 0.01 | 0.01 | 91 | 1009.5 |
| 20260507052010 | 52 | 0 | 0.0 | 0.0 | 0.00 | 0.01 | 0.01 | 91 | 1009.5 |
| 20260507051529 | 53 | 0 | 0.0 | 2.0 | 0.01 | 0.01 | 0.01 | 90 | 1009.4 |
| 20260507051013 | 53 | 0 | 0.0 | 2.0 | 0.01 | 0.01 | 0.01 | 90 | 1009.2 |
| 20260507050511 | 53 | 0 | 0.0 | 1.0 | 0.01 | 0.01 | 0.01 | 90 | 1009.1 |
| 20260507050030 | 54 | 0 | 0.0 | 2.0 | 0.01 | 0.01 | 0.01 | 91 | 1009.2 |
| 20260507045510 | 54 | 359 | 1.0 | 2.0 | 0.01 | 0.01 | 0.01 | 90 | 1009.4 |
| 20260507045009 | 54 | 0 | 0.0 | 2.0 | 0.01 | 0.01 | 0.01 | 90 | 1009.3 |
| 20260507044530 | 54 | 0 | 0.0 | 7.0 | 0.01 | 0.01 | 0.01 | 90 | 1009.2 |
| 20260507044009 | 54 | 338 | 2.0 | 7.0 | 0.01 | 0.01 | 0.01 | 88 | 1009.1 |
| 20260507043509 | 54 | 91 | 3.0 | 7.0 | 0.01 | 0.01 | 0.01 | 87 | 1009.1 |
| 20260507043035 | 54 | 341 | 1.0 | 4.0 | 0.01 | 0.01 | 0.01 | 87 | 1008.8 |
| 20260507042510 | 55 | 337 | 1.0 | 7.0 | 0.01 | 0.01 | 0.01 | 85 | 1008.9 |
| 20260507042012 | 56 | 358 | 3.0 | 7.0 | 0.01 | 0.01 | 0.01 | 79 | 1009.1 |
| 20260507041532 | 57 | 280 | 3.0 | 7.0 | 0.00 | 0.00 | 0.00 | 71 | 1009.3 |
| 20260507041010 | 58 | 0 | 0.0 | 2.0 | 0.00 | 0.00 | 0.00 | 68 | 1009.1 |
| 20260507040510 | 58 | 293 | 1.0 | 3.0 | 0.00 | 0.00 | 0.00 | 66 | 1008.8 |
| 20260507040029 | 57 | 280 | 1.0 | 3.0 | 0.00 | 0.00 | 0.00 | 68 | 1008.7 |
| 20260507035511 | 57 | 285 | 0.0 | 3.0 | 0.00 | 0.00 | 0.00 | 67 | 1008.6 |
| 20260507035011 | 58 | 0 | 0.0 | 2.0 | 0.00 | 0.00 | 0.00 | 68 | 1008.6 |
| 20260507034530 | 58 | 348 | 0.0 | 2.0 | 0.00 | 0.00 | 0.00 | 67 | 1008.7 |
| 20260507034012 | 58 | 0 | 0.0 | 2.0 | 0.00 | 0.00 | 0.00 | 65 | 1008.7 |
| 20260507033510 | 59 | 0 | 0.0 | 2.0 | 0.00 | 0.00 | 0.00 | 65 | 1008.6 |
| 20260507033029 | 59 | 0 | 0.0 | 2.0 | 0.00 | 0.00 | 0.00 | 65 | 1008.6 |
| 20260507032510 | 60 | 0 | 0.0 | 2.0 | 0.00 | 0.00 | 0.00 | 66 | 1008.5 |
| 20260507032012 | 60 | 0 | 0.0 | 2.0 | 0.00 | 0.00 | 0.00 | 65 | 1008.5 |
| 20260507031528 | 61 | 280 | 0.0 | 2.0 | 0.00 | 0.00 | 0.00 | 64 | 1008.6 |
| 20260507031008 | 61 | 0 | 0.0 | 0.0 | 0.00 | 0.00 | 0.00 | 66 | 1008.4 |
| 20260507030512 | 60 | 0 | 0.0 | 0.0 | 0.00 | 0.00 | 0.00 | 66 | 1008.6 |
| 20260507030032 | 62 | 0 | 0.0 | 0.0 | 0.00 | 0.00 | 0.00 | 67 | 1008.4 |
| 20260507025509 | 62 | 0 | 0.0 | 2.0 | 0.00 | 0.00 | 0.00 | 61 | 1008.3 |
| 20260507025009 | 63 | 0 | 0.0 | 2.0 | 0.00 | 0.00 | 0.00 | 62 | 1008.3 |
| 20260507024528 | 63 | 0 | 0.0 | 0.0 | 0.00 | 0.00 | 0.00 | 60 | 1008.3 |
| 20260507024008 | 64 | 0 | 0.0 | 0.0 | 0.00 | 0.00 | 0.00 | 56 | 1008.4 |
| 20260507023512 | 65 | 0 | 0.0 | 0.0 | 0.00 | 0.00 | 0.00 | 58 | 1008.6 |
| 20260507023031 | 65 | 0 | 0.0 | 0.0 | 0.00 | 0.00 | 0.00 | 56 | 1008.6 |
| 20260507022509 | 65 | 0 | 0.0 | 2.0 | 0.00 | 0.00 | 0.00 | 55 | 1008.7 |
| 20260507022009 | 66 | 0 | 0.0 | 3.0 | 0.00 | 0.00 | 0.00 | 57 | 1008.7 |
| 20260507021530 | 67 | 284 | 0.0 | 5.0 | 0.00 | 0.00 | 0.00 | 55 | 1008.7 |
| 20260507021012 | 69 | 327 | 1.0 | 5.0 | 0.00 | 0.00 | 0.00 | 44 | 1008.7 |
| 20260507020510 | 68 | 190 | 1.0 | 5.0 | 0.00 | 0.00 | 0.00 | 51 | 1008.7 |
| 20260507020033 | 68 | 0 | 0.0 | 5.0 | 0.00 | 0.00 | 0.00 | 47 | 1008.7 |
| 20260507015509 | 68 | 302 | 1.0 | 5.0 | 0.00 | 0.00 | 0.00 | 50 | 1008.7 |
| 20260507015013 | 67 | 288 | 1.0 | 5.0 | 0.00 | 0.00 | 0.00 | 54 | 1008.7 |
| 20260507014528 | 68 | 283 | 1.0 | 4.0 | 0.00 | 0.00 | 0.00 | 52 | 1008.7 |
| 20260507014014 | 68 | 306 | 1.0 | 4.0 | 0.00 | 0.00 | 0.00 | 51 | 1008.7 |
| 20260507013511 | 68 | 328 | 1.0 | 4.0 | 0.00 | 0.00 | 0.00 | 48 | 1008.7 |
| 20260507013036 | 68 | 0 | 0.0 | 3.0 | 0.00 | 0.00 | 0.00 | 52 | 1008.8 |
| 20260507012513 | 68 | 299 | 2.0 | 4.0 | 0.00 | 0.00 | 0.00 | 52 | 1008.7 |
| 20260507012014 | 69 | 0 | 1.0 | 6.0 | 0.00 | 0.00 | 0.00 | 53 | 1008.6 |
| 20260507011538 | 69 | 0 | 1.0 | 7.0 | 0.00 | 0.00 | 0.00 | 47 | 1008.7 |
| 20260507011010 | 70 | 226 | 2.0 | 8.0 | 0.00 | 0.00 | 0.00 | 45 | 1008.8 |
| 20260507010509 | 70 | 261 | 2.0 | 8.0 | 0.00 | 0.00 | 0.00 | 47 | 1008.8 |
| 20260507010032 | 70 | 224 | 1.0 | 5.0 | 0.00 | 0.00 | 0.00 | 48 | 1008.8 |
| 20260507005515 | 70 | 282 | 2.0 | 7.0 | 0.00 | 0.00 | 0.00 | 47 | 1008.9 |
| 20260507005010 | 70 | 300 | 4.0 | 7.0 | 0.00 | 0.00 | 0.00 | 46 | 1008.9 |
| 20260507004531 | 70 | 256 | 2.0 | 4.0 | 0.00 | 0.00 | 0.00 | 51 | 1008.9 |
| 20260507004010 | 70 | 0 | 0.0 | 4.0 | 0.00 | 0.00 | 0.00 | 49 | 1009.0 |
| 20260507003511 | 71 | 316 | 1.0 | 7.0 | 0.00 | 0.00 | 0.00 | 47 | 1009.1 |
| 20260507003029 | 71 | 244 | 2.0 | 7.0 | 0.00 | 0.00 | 0.00 | 46 | 1009.1 |
| 20260507002512 | 71 | 209 | 4.0 | 7.0 | 0.00 | 0.00 | 0.00 | 46 | 1009.0 |
| 20260507002011 | 71 | 266 | 2.0 | 6.0 | 0.00 | 0.00 | 0.00 | 46 | 1009.1 |
| 20260507001533 | 71 | 182 | 2.0 | 8.0 | 0.00 | 0.00 | 0.00 | 46 | 1009.0 |
| 20260507001009 | 71 | 202 | 3.0 | 9.0 | 0.00 | 0.00 | 0.00 | 45 | 1009.2 |
| 20260507000514 | 71 | 155 | 3.0 | 9.0 | 0.00 | 0.00 | 0.00 | 45 | 1009.1 |
| 20260507000030 | 71 | 180 | 3.0 | 7.0 | 0.00 | 0.00 | 0.00 | 44 | 1009.1 |
| 20260506235508 | 71 | 277 | 3.0 | 7.0 | 0.00 | 0.00 | 0.00 | 44 | 1009.1 |
| 20260506235011 | 72 | 226 | 4.0 | 7.0 | 0.00 | 0.00 | 0.00 | 44 | 1009.1 |
| 20260506234536 | 72 | 293 | 3.0 | 7.0 | 0.00 | 0.00 | 0.00 | 43 | 1009.1 |
| 20260506234013 | 72 | 236 | 3.0 | 7.0 | 0.00 | 0.00 | 0.00 | 45 | 1009.1 |
| 20260506233509 | 72 | 248 | 2.0 | 5.0 | 0.00 | 0.00 | 0.00 | 45 | 1009.1 |
| 20260506233029 | 72 | 184 | 2.0 | 8.0 | 0.00 | 0.00 | 0.00 | 43 | 1009.2 |
| 20260506232510 | 71 | 172 | 3.0 | 9.0 | 0.00 | 0.00 | 0.00 | 45 | 1009.3 |
| 20260506232013 | 71 | 165 | 4.0 | 11.0 | 0.00 | 0.00 | 0.00 | 43 | 1009.2 |
| 20260506231535 | 71 | 146 | 3.0 | 11.0 | 0.00 | 0.00 | 0.00 | 44 | 1009.4 |
| 20260506231014 | 72 | 188 | 2.0 | 11.0 | 0.00 | 0.00 | 0.00 | 42 | 1009.4 |
| 20260506230509 | 72 | 192 | 2.0 | 9.0 | 0.00 | 0.00 | 0.00 | 43 | 1009.5 |
| 20260506230030 | 72 | 225 | 2.0 | 9.0 | 0.00 | 0.00 | 0.00 | 44 | 1009.7 |
| 20260506225511 | 72 | 174 | 4.0 | 10.0 | 0.00 | 0.00 | 0.00 | 40 | 1009.6 |
| 20260506225010 | 72 | 158 | 3.0 | 10.0 | 0.00 | 0.00 | 0.00 | 42 | 1009.6 |
| 20260506224530 | 72 | 186 | 3.0 | 7.0 | 0.00 | 0.00 | 0.00 | 43 | 1009.7 |
| 20260506224013 | 72 | 304 | 3.0 | 7.0 | 0.00 | 0.00 | 0.00 | 42 | 1009.7 |
| 20260506223510 | 72 | 248 | 3.0 | 9.0 | 0.00 | 0.00 | 0.00 | 40 | 1009.8 |
| 20260506223031 | 72 | 162 | 3.0 | 11.0 | 0.00 | 0.00 | 0.00 | 40 | 1009.8 |
| 20260506222510 | 72 | 176 | 5.0 | 11.0 | 0.00 | 0.00 | 0.00 | 39 | 1009.8 |
| 20260506222010 | 73 | 148 | 6.0 | 13.0 | 0.00 | 0.00 | 0.00 | 46 | 1009.7 |
| 20260506221529 | 72 | 190 | 6.0 | 13.0 | 0.00 | 0.00 | 0.00 | 41 | 1009.8 |
| 20260506221011 | 72 | 141 | 7.0 | 13.0 | 0.00 | 0.00 | 0.00 | 40 | 1009.8 |
| 20260506220509 | 72 | 188 | 5.0 | 12.0 | 0.00 | 0.00 | 0.00 | 40 | 1010.1 |
| 20260506220030 | 72 | 150 | 6.0 | 11.0 | 0.00 | 0.00 | 0.00 | 40 | 1010.2 |
| 20260506215511 | 72 | 217 | 5.0 | 11.0 | 0.00 | 0.00 | 0.00 | 37 | 1010.3 |
| 20260506215010 | 72 | 93 | 5.0 | 11.0 | 0.00 | 0.00 | 0.00 | 41 | 1010.4 |
| 20260506214529 | 71 | 205 | 4.0 | 11.0 | 0.00 | 0.00 | 0.00 | 41 | 1010.4 |
| 20260506214011 | 71 | 185 | 4.0 | 12.0 | 0.00 | 0.00 | 0.00 | 40 | 1010.5 |
| 20260506213511 | 70 | 230 | 5.0 | 12.0 | 0.00 | 0.00 | 0.00 | 40 | 1010.5 |
| 20260506213028 | 70 | 231 | 4.0 | 10.0 | 0.00 | 0.00 | 0.00 | 39 | 1010.6 |
| 20260506212513 | 70 | 176 | 5.0 | 11.0 | 0.00 | 0.00 | 0.00 | 42 | 1010.6 |
| 20260506212011 | 69 | 323 | 5.0 | 14.0 | 0.00 | 0.00 | 0.00 | 40 | 1010.7 |
| 20260506211529 | 69 | 188 | 4.0 | 14.0 | 0.00 | 0.00 | 0.00 | 40 | 1010.8 |
| 20260506211009 | 69 | 205 | 7.0 | 14.0 | 0.00 | 0.00 | 0.00 | 41 | 1010.8 |
| 20260506210510 | 69 | 181 | 7.0 | 13.0 | 0.00 | 0.00 | 0.00 | 38 | 1010.8 |
| 20260506210027 | 69 | 184 | 3.0 | 12.0 | 0.00 | 0.00 | 0.00 | 40 | 1010.9 |
| 20260506205509 | 69 | 156 | 6.0 | 12.0 | 0.00 | 0.00 | 0.00 | 37 | 1010.9 |
| 20260506205009 | 69 | 291 | 4.0 | 12.0 | 0.00 | 0.00 | 0.00 | 39 | 1010.9 |
| 20260506204533 | 69 | 166 | 4.0 | 10.0 | 0.00 | 0.00 | 0.00 | 39 | 1011.0 |
| 20260506204011 | 69 | 167 | 4.0 | 10.0 | 0.00 | 0.00 | 0.00 | 38 | 1011.0 |
| 20260506203508 | 69 | 185 | 5.0 | 10.0 | 0.00 | 0.00 | 0.00 | 38 | 1011.1 |
| 20260506203043 | 69 | 171 | 4.0 | 12.0 | 0.00 | 0.00 | 0.00 | 40 | 1011.0 |
| 20260506202509 | 68 | 134 | 7.0 | 12.0 | 0.00 | 0.00 | 0.00 | 38 | 1011.0 |
| 20260506202011 | 68 | 244 | 4.0 | 11.0 | 0.00 | 0.00 | 0.00 | 39 | 1011.2 |
| 20260506201528 | 68 | 269 | 4.0 | 11.0 | 0.00 | 0.00 | 0.00 | 39 | 1011.3 |
| 20260506201010 | 68 | 331 | 4.0 | 10.0 | 0.00 | 0.00 | 0.00 | 40 | 1011.3 |
| 20260506200510 | 68 | 141 | 5.0 | 10.0 | 0.00 | 0.00 | 0.00 | 43 | 1011.3 |
| 20260506200044 | 68 | 146 | 4.0 | 11.0 | 0.00 | 0.00 | 0.00 | 39 | 1011.4 |
| 20260506195510 | 67 | 191 | 5.0 | 11.0 | 0.00 | 0.00 | 0.00 | 36 | 1011.5 |
| 20260506195010 | 68 | 183 | 6.0 | 12.0 | 0.00 | 0.00 | 0.00 | 36 | 1011.7 |
| 20260506194531 | 67 | 224 | 4.0 | 12.0 | 0.00 | 0.00 | 0.00 | 39 | 1011.8 |
| 20260506194012 | 67 | 285 | 5.0 | 12.0 | 0.00 | 0.00 | 0.00 | 35 | 1011.8 |
| 20260506193512 | 68 | 217 | 4.0 | 12.0 | 0.00 | 0.00 | 0.00 | 35 | 1011.9 |
| 20260506193028 | 67 | 166 | 4.0 | 13.0 | 0.00 | 0.00 | 0.00 | 39 | 1012.0 |
| 20260506192510 | 67 | 268 | 4.0 | 13.0 | 0.00 | 0.00 | 0.00 | 36 | 1012.1 |
| 20260506192009 | 67 | 207 | 7.0 | 13.0 | 0.00 | 0.00 | 0.00 | 42 | 1012.3 |
| 20260506191530 | 66 | 293 | 3.0 | 11.0 | 0.00 | 0.00 | 0.00 | 37 | 1012.3 |
| 20260506191010 | 66 | 210 | 5.0 | 11.0 | 0.00 | 0.00 | 0.00 | 37 | 1012.5 |
| 20260506190511 | 66 | 199 | 3.0 | 11.0 | 0.00 | 0.00 | 0.00 | 38 | 1012.5 |
| 20260506190036 | 65 | 169 | 5.0 | 11.0 | 0.00 | 0.00 | 0.00 | 35 | 1012.6 |
| 20260506185510 | 66 | 186 | 4.0 | 9.0 | 0.00 | 0.00 | 0.00 | 40 | 1012.7 |
| 20260506185009 | 65 | 199 | 3.0 | 9.0 | 0.00 | 0.00 | 0.00 | 37 | 1012.8 |
| 20260506184531 | 64 | 203 | 5.0 | 9.0 | 0.00 | 0.00 | 0.00 | 36 | 1012.7 |
| 20260506184011 | 64 | 174 | 4.0 | 9.0 | 0.00 | 0.00 | 0.00 | 41 | 1012.9 |
| 20260506183510 | 64 | 246 | 4.0 | 10.0 | 0.00 | 0.00 | 0.00 | 38 | 1012.8 |
| 20260506183028 | 64 | 165 | 5.0 | 11.0 | 0.00 | 0.00 | 0.00 | 42 | 1012.9 |
| 20260506182510 | 64 | 198 | 5.0 | 11.0 | 0.00 | 0.00 | 0.00 | 36 | 1013.0 |
| 20260506182015 | 64 | 266 | 3.0 | 8.0 | 0.00 | 0.00 | 0.00 | 39 | 1012.9 |
| 20260506181528 | 63 | 194 | 4.0 | 8.0 | 0.00 | 0.00 | 0.00 | 42 | 1013.0 |
| 20260506181012 | 62 | 102 | 4.0 | 6.0 | 0.00 | 0.00 | 0.00 | 43 | 1013.1 |
| 20260506180513 | 61 | 135 | 2.0 | 6.0 | 0.00 | 0.00 | 0.00 | 41 | 1013.0 |
| 20260506180028 | 61 | 98 | 1.0 | 6.0 | 0.00 | 0.00 | 0.00 | 41 | 1013.1 |
| 20260506175511 | 60 | 181 | 3.0 | 6.0 | 0.00 | 0.00 | 0.00 | 42 | 1013.2 |
| 20260506175011 | 61 | 88 | 3.0 | 5.0 | 0.00 | 0.00 | 0.00 | 44 | 1013.2 |
| 20260506174528 | 60 | 63 | 2.0 | 5.0 | 0.00 | 0.00 | 0.00 | 47 | 1013.3 |
| 20260506174013 | 59 | 108 | 2.0 | 4.0 | 0.00 | 0.00 | 0.00 | 43 | 1013.3 |
| 20260506173511 | 59 | 113 | 1.0 | 4.0 | 0.00 | 0.00 | 0.00 | 46 | 1013.4 |
| 20260506173039 | 58 | 88 | 2.0 | 4.0 | 0.00 | 0.00 | 0.00 | 45 | 1013.5 |
| 20260506172511 | 59 | 129 | 0.0 | 4.0 | 0.00 | 0.00 | 0.00 | 47 | 1013.5 |
| 20260506172010 | 58 | 145 | 0.0 | 4.0 | 0.00 | 0.00 | 0.00 | 49 | 1013.7 |
| 20260506171534 | 58 | 79 | 2.0 | 6.0 | 0.00 | 0.00 | 0.00 | 48 | 1013.7 |
| 20260506171010 | 57 | 0 | 1.0 | 6.0 | 0.00 | 0.00 | 0.00 | 47 | 1013.7 |
| 20260506170513 | 57 | 181 | 0.0 | 3.0 | 0.00 | 0.00 | 0.00 | 49 | 1013.9 |
| 20260506170028 | 56 | 166 | 1.0 | 3.0 | 0.00 | 0.00 | 0.00 | 51 | 1014.0 |
| 20260506165510 | 55 | 87 | 1.0 | 3.0 | 0.00 | 0.00 | 0.00 | 49 | 1014.0 |
| 20260506165010 | 56 | 0 | 0.0 | 4.0 | 0.00 | 0.00 | 0.00 | 51 | 1014.1 |
| 20260506164530 | 55 | 167 | 1.0 | 4.0 | 0.00 | 0.00 | 0.00 | 49 | 1014.1 |
| 20260506164009 | 55 | 191 | 1.0 | 3.0 | 0.00 | 0.00 | 0.00 | 52 | 1014.2 |
| 20260506163511 | 55 | 117 | 0.0 | 3.0 | 0.00 | 0.00 | 0.00 | 51 | 1014.2 |
| 20260506163042 | 55 | 0 | 0.0 | 3.0 | 0.00 | 0.00 | 0.00 | 53 | 1014.3 |
| 20260506162511 | 54 | 149 | 1.0 | 3.0 | 0.00 | 0.00 | 0.00 | 55 | 1014.3 |
| 20260506162014 | 54 | 135 | 0.0 | 2.0 | 0.00 | 0.00 | 0.00 | 54 | 1014.2 |
| 20260506161528 | 53 | 0 | 0.0 | 3.0 | 0.00 | 0.00 | 0.00 | 51 | 1014.3 |
| 20260506161011 | 53 | 0 | 1.0 | 3.0 | 0.00 | 0.00 | 0.00 | 56 | 1014.3 |
| 20260506160509 | 52 | 0 | 1.0 | 3.0 | 0.00 | 0.00 | 0.00 | 57 | 1014.3 |
| 20260506160032 | 52 | 0 | 0.0 | 3.0 | 0.00 | 0.00 | 0.00 | 57 | 1014.4 |
| 20260506155512 | 52 | 148 | 1.0 | 3.0 | 0.00 | 0.00 | 0.00 | 59 | 1014.5 |
| 20260506155009 | 52 | 0 | 0.0 | 2.0 | 0.00 | 0.00 | 0.00 | 57 | 1014.6 |
| 20260506154537 | 51 | 0 | 0.0 | 3.0 | 0.00 | 0.00 | 0.00 | 59 | 1014.6 |
| 20260506154010 | 50 | 160 | 1.0 | 3.0 | 0.00 | 0.00 | 0.00 | 61 | 1014.7 |
| 20260506153509 | 51 | 0 | 0.0 | 0.0 | 0.00 | 0.00 | 0.00 | 59 | 1014.7 |
| 20260506153032 | 50 | 0 | 0.0 | 0.0 | 0.00 | 0.00 | 0.00 | 61 | 1014.7 |
| 20260506152515 | 50 | 0 | 0.0 | 0.0 | 0.00 | 0.00 | 0.00 | 63 | 1014.8 |
| 20260506152014 | 49 | 0 | 0.0 | 0.0 | 0.00 | 0.00 | 0.00 | 60 | 1014.9 |
| 20260506151538 | 49 | 0 | 0.0 | 1.0 | 0.00 | 0.00 | 0.00 | 60 | 1014.9 |
| 20260506151009 | 49 | 0 | 0.0 | 1.0 | 0.00 | 0.00 | 0.00 | 61 | 1015.0 |
| 20260506150513 | 49 | 0 | 0.0 | 3.0 | 0.00 | 0.00 | 0.00 | 60 | 1015.0 |
| 20260506150028 | 49 | 153 | 1.0 | 3.0 | 0.00 | 0.00 | 0.00 | 63 | 1015.1 |
| 20260506145512 | 49 | 0 | 0.0 | 0.0 | 0.00 | 0.00 | 0.00 | 63 | 1015.1 |
| 20260506145011 | 48 | 0 | 0.0 | 0.0 | 0.00 | 0.00 | 0.00 | 63 | 1015.1 |
| 20260506144529 | 48 | 0 | 0.0 | 0.0 | 0.00 | 0.00 | 0.00 | 64 | 1015.1 |
| 20260506144010 | 48 | 0 | 0.0 | 0.0 | 0.00 | 0.00 | 0.00 | 66 | 1015.0 |
| 20260506143510 | 47 | 0 | 0.0 | 0.0 | 0.00 | 0.00 | 0.00 | 62 | 1015.0 |
| 20260506143032 | 47 | 0 | 0.0 | 0.0 | 0.00 | 0.00 | 0.00 | 65 | 1015.0 |
| 20260506142510 | 47 | 0 | 0.0 | 0.0 | 0.00 | 0.00 | 0.00 | 68 | 1015.0 |
| 20260506142010 | 46 | 0 | 0.0 | 0.0 | 0.00 | 0.00 | 0.00 | 73 | 1015.0 |
| 20260506141529 | 45 | 0 | 0.0 | 0.0 | 0.00 | 0.00 | 0.00 | 73 | 1015.0 |
| 20260506141016 | 44 | 0 | 0.0 | 0.0 | 0.00 | 0.00 | 0.00 | 76 | 1015.0 |
| 20260506140511 | 43 | 0 | 0.0 | 0.0 | 0.00 | 0.00 | 0.00 | 76 | 1014.9 |
| 20260506140033 | 43 | 0 | 0.0 | 0.0 | 0.00 | 0.00 | 0.00 | 76 | 1015.0 |
| 20260506135514 | 42 | 0 | 0.0 | 0.0 | 0.00 | 0.00 | 0.00 | 78 | 1015.0 |
| 20260506135009 | 41 | 0 | 0.0 | 0.0 | 0.00 | 0.00 | 0.00 | 80 | 1014.9 |
| 20260506134542 | 40 | 0 | 0.0 | 0.0 | 0.00 | 0.00 | 0.00 | 81 | 1014.9 |
| 20260506134017 | 40 | 0 | 0.0 | 0.0 | 0.00 | 0.00 | 0.00 | 81 | 1014.9 |
| 20260506133508 | 39 | 0 | 0.0 | 0.0 | 0.00 | 0.00 | 0.00 | 83 | 1015.0 |
| 20260506133029 | 38 | 0 | 0.0 | 0.0 | 0.00 | 0.00 | 0.00 | 86 | 1015.0 |
| 20260506132513 | 37 | 0 | 0.0 | 0.0 | 0.00 | 0.00 | 0.00 | 87 | 1014.9 |
| 20260506132010 | 36 | 0 | 0.0 | 0.0 | 0.00 | 0.00 | 0.00 | 88 | 1014.9 |
| 20260506131535 | 36 | 0 | 0.0 | 0.0 | 0.00 | 0.00 | 0.00 | 86 | 1014.9 |
| 20260506131013 | 36 | 0 | 0.0 | 0.0 | 0.00 | 0.00 | 0.00 | 88 | 1014.9 |
| 20260506130512 | 35 | 0 | 0.0 | 0.0 | 0.00 | 0.00 | 0.00 | 88 | 1015.0 |
| 20260506130030 | 35 | 0 | 0.0 | 0.0 | 0.00 | 0.00 | 0.00 | 88 | 1014.9 |
| 20260506125509 | 35 | 0 | 0.0 | 0.0 | 0.00 | 0.00 | 0.00 | 87 | 1014.9 |